Temperature
7 5 5 6 6 7 7 6 6 7 8 8 7 7 8 9 8 8 8 9 9 9 10 10 10 10 10 10 10 10 10 10 11 11 11 11 11 11 11 12 12 11 11 11
5 6 6 7 7 7 7 6 6 7 7 8 7 7 7 8 8 8 8 9 9 9 9 9 9 9 9 9 10 10 10 10 10 10 10 10 11 11 11 11 11 11 11 11
6 6 7 7 7 7 7 6 6 6 7 7 6 7 7 7 8 8 8 9 9 9 9 9 9 9 9 9 9 9 10 10 10 10 10 10 10 10 10 11 11 11 11 11
6 6 7 7 7 7 6 7 7 7 6 5 6 6 6 7 6 7 7 8 8 9 9 8 8 9 9 9 9 9 9 9 9 9 9 9 9 10 10 10 10 10 10 10
6 6 6 7 7 7 6 7 6 6 6 5 5 5 6 6 7 7 7 8 8 8 8 8 8 8 8 8 8 9 9 9 9 9 9 9 9 9 9 9 9 9 10 10
6 6 6 7 7 7 7 6 6 5 5 6 6 5 5 5 6 7 7 7 8 8 8 8 8 8 8 8 8 8 8 8 8 8 8 8 8 8 9 9 9 9 9 9
5 6 7 7 7 6 6 5 5 5 5 5 5 5 5 6 6 6 6 7 8 8 8 8 8 8 8 8 8 8 8 8 8 8 8 8 8 8 8 8 8 9 9 9
5 5 6 6 7 6 6 6 5 6 5 4 5 5 6 6 6 7 7 7 8 8 8 8 8 8 8 8 8 7 7 7 7 8 8 8 8 8 8 8 8 8 8 9
5 5 6 6 6 7 6 5 5 4 4 4 5 4 5 6 6 6 6 7 7 8 7 7 7 7 7 7 7 7 7 7 7 7 7 7 7 7 8 8 8 8 8 8
5 5 5 5 6 6 6 5 4 4 5 6 5 5 5 7 6 6 5 6 7 8 7 7 7 7 7 7 7 7 7 7 7 7 7 7 7 7 7 7 7 7 7 7
5 4 4 5 6 6 5 5 4 4 4 5 5 6 6 6 6 6 5 7 7 8 8 7 7 7 7 6 6 6 6 6 7 7 7 7 7 7 7 7 7 7 7 7
5 4 4 4 5 5 5 5 4 5 4 3 3 6 7 5 5 5 6 7 8 8 8 7 7 7 7 6 6 6 6 6 6 6 6 6 6 6 6 6 6 6 6 7
5 4 4 5 5 5 5 5 4 4 4 3 3 6 6 5 5 6 6 7 8 8 8 7 7 7 7 6 6 6 6 6 6 6 6 6 6 6 6 6 6 6 6 6
5 4 4 5 6 5 5 5 4 4 3 3 4 5 6 6 5 6 7 8 8 8 7 7 7 7 7 6 6 6 6 6 6 5 6 6 6 6 6 6 6 6 6 6
4 3 3 3 4 4 4 4 4 4 4 4 4 4 6 6 5 6 7 7 7 7 7 7 7 7 7 6 6 6 6 6 5 5 5 5 5 5 5 5 5 5 5 5
3 3 3 3 3 3 3 4 4 4 4 4 4 5 6 6 6 6 6 6 6 7 8 8 7 7 7 7 6 6 6 6 5 5 5 5 5 5 5 5 5 5 5 5
2 2 3 3 3 3 4 4 4 3 3 3 4 5 5 5 4 5 6 7 7 7 8 8 7 7 7 7 7 6 6 6 6 5 5 5 5 5 5 5 5 5 4 4
2 2 2 2 3 4 6 6 4 4 4 3 4 4 4 4 6 7 7 7 7 7 7 8 8 7 7 7 6 6 6 6 6 5 5 5 5 5 5 4 4 4 4 4
2 2 2 2 2 3 5 5 4 4 4 4 4 4 5 5 5 7 8 8 8 8 8 8 8 7 7 7 6 6 6 6 5 5 5 5 5 4 4 4 4 4 4 3
1 2 2 2 2 3 6 6 5 5 5 6 4 4 4 4 4 5 8 8 8 8 7 7 7 7 7 7 6 6 6 6 5 5 5 5 4 4 4 4 3 3 3 3
1 1 1 2 2 3 4 5 5 5 6 7 6 6 5 4 6 7 8 8 7 7 7 7 7 7 7 6 6 6 6 6 6 5 5 4 4 4 4 3 3 3 3 3
2 1 1 2 2 3 4 4 4 6 7 7 7 7 6 6 7 7 7 7 7 7 7 7 7 7 7 6 6 6 6 6 5 5 5 4 4 4 3 3 3 3 2 2
1 2 2 3 4 5 5 5 7 7 6 7 7 7 7 6 6 6 6 6 6 7 7 6 6 6 6 6 6 6 6 5 5 5 4 4 4 3 3 3 2 2 2 2
1 1 1 1 2 4 5 6 7 7 6 7 7 7 6 6 6 6 6 6 6 6 6 6 6 6 6 6 6 6 5 5 5 5 4 4 3 3 3 3 2 2 2 2
2 1 1 1 3 4 5 7 7 7 7 6 6 6 6 5 5 5 5 5 6 6 6 6 6 6 6 6 5 5 5 5 5 4 4 4 3 3 3 3 2 2 2 2
1 2 2 4 4 4 5 7 6 6 6 6 5 5 5 5 5 5 5 5 5 5 5 5 5 5 5 5 5 5 5 4 4 4 4 4 3 3 3 2 2 2 1 1
Wind_Speed
5 6 4 1 1 2 3 2 2 4 3 2 6 10 12 8 5 6 7 6 6 6 4 3 2 2 2 2 2 2 3 3 2 1 1 1 1 1 1 1 2 3 4 4
6 4 2 1 1 3 2 1 2 4 3 2 6 11 10 8 6 7 7 8 7 5 3 3 3 2 2 2 3 3 3 3 2 1 1 1 1 2 2 2 2 2 3 3
3 2 2 3 3 3 2 1 2 4 5 4 5 9 6 4 3 4 5 6 5 6 5 5 4 4 3 2 3 3 3 3 3 2 1 1 1 1 1 1 2 2 2 3
2 3 2 3 2 1 2 2 2 2 3 4 3 6 8 5 6 5 5 5 4 4 4 4 4 4 3 3 3 3 3 3 3 2 1 2 2 2 3 2 2 2 2 2
3 2 2 1 2 1 2 2 1 1 1 3 1 3 9 4 5 7 6 5 5 4 4 5 5 4 4 3 2 3 3 3 3 2 2 3 3 3 2 1 2 2 1 1
2 2 1 1 1 0 1 2 2 2 1 3 3 4 8 5 6 6 5 5 4 4 4 4 4 3 3 2 2 3 3 4 3 3 3 3 4 3 2 2 2 2 1 1
6 4 2 1 2 3 4 4 4 5 3 5 2 4 9 8 7 6 8 7 5 4 4 4 4 4 3 3 3 3 3 4 4 3 3 3 4 4 4 3 3 2 2 2
4 5 3 1 1 0 1 3 3 2 4 6 3 7 8 6 6 7 7 6 4 4 4 4 4 4 4 4 4 4 4 4 4 3 3 3 3 3 3 3 2 2 2 2
1 5 4 2 1 2 1 1 2 2 2 5 7 7 9 4 5 4 4 4 5 5 5 5 5 4 4 4 4 4 4 4 4 3 3 2 2 2 2 2 1 1 1 1
2 4 5 4 1 0 2 4 3 2 2 5 7 6 5 6 6 5 5 5 6 5 5 5 5 5 4 4 4 3 4 4 4 3 3 2 2 2 1 1 1 1 1 1
2 2 5 3 3 4 3 3 3 2 2 3 6 8 6 7 6 6 7 7 7 6 6 6 5 5 4 3 3 3 3 3 3 3 2 2 2 1 1 1 1 1 1 1
2 2 5 7 5 2 4 6 6 3 4 4 4 9 6 7 7 6 7 7 7 7 6 6 5 4 4 4 4 4 4 3 3 2 1 1 1 1 1 1 1 1 1 1
2 1 4 5 2 1 3 4 5 4 3 5 5 9 3 3 5 5 7 8 7 7 6 5 5 5 5 5 5 4 4 4 3 2 2 1 1 1 1 1 0 0 1 0
1 3 6 8 5 3 5 5 6 6 5 7 11 15 14 11 10 10 9 9 8 7 7 6 6 6 6 5 5 5 4 3 2 2 2 2 2 2 1 1 1 1 1 1
3 5 7 11 11 9 12 14 11 14 13 12 13 14 20 13 11 11 10 9 8 8 8 8 8 7 6 6 5 5 5 4 3 3 3 3 2 2 2 1 1 1 1 1
2 4 4 8 8 10 15 17 17 17 15 18 19 22 18 11 8 9 10 9 10 10 9 9 8 8 7 7 6 5 5 4 3 4 4 3 3 3 3 2 2 2 1 1
3 3 4 8 7 8 12 12 13 9 9 10 16 16 10 8 8 9 9 9 10 10 9 9 9 9 8 8 7 7 6 4 4 4 4 3 3 3 3 2 2 2 2 1
6 4 3 5 5 9 8 3 7 9 11 13 13 12 9 10 10 9 9 9 10 9 8 8 8 8 7 6 6 5 4 5 5 5 5 4 4 4 3 3 3 3 2 2
8 7 4 3 6 10 10 5 5 6 9 10 14 14 11 7 7 8 7 7 9 9 8 8 7 7 6 6 6 5 5 5 6 6 6 5 5 5 4 4 4 3 3 2
4 5 5 4 5 8 8 2 3 1 7 5 7 9 7 2 4 7 6 5 7 7 6 6 5 5 5 6 6 6 7 7 8 8 7 6 6 6 6 5 4 3 3 3
4 5 9 9 9 10 9 3 3 2 6 2 4 6 5 6 8 8 7 6 7 7 7 5 5 5 6 6 7 8 7 9 8 6 5 5 6 6 5 4 3 3 3 2
8 7 8 7 9 11 6 6 7 9 5 4 5 6 7 9 11 10 9 8 8 7 7 5 5 6 5 6 7 8 9 8 6 6 6 6 6 5 5 5 4 4 4 3
10 10 7 11 12 7 5 9 8 5 7 8 7 8 8 9 10 11 10 10 9 8 7 5 6 6 5 6 8 10 9 6 6 7 7 6 6 5 5 5 5 4 4 4
7 6 7 10 14 13 12 12 12 11 11 12 11 11 9 11 12 12 11 10 9 8 8 6 6 7 7 7 8 10 7 7 8 8 7 6 6 6 5 5 5 5 5 5
9 6 8 14 14 12 13 13 14 14 13 13 12 11 12 12 13 13 12 11 10 9 8 7 7 8 9 7 8 8 7 8 8 8 8 7 7 7 6 5 5 5 5 6
9 11 12 17 13 11 13 11 10 12 13 13 13 13 12 12 13 13 12 11 9 9 8 8 8 9 9 7 8 7 8 9 9 8 8 7 6 6 6 5 3 6 6 8
Wind_Direction
13 57 50 356 143 156 146 141 284 281 300 298 268 275 279 279 262 259 260 256 253 254 258 254 259 283 311 322 335 327 324 319 332 336 314 295 286 286 283 270 253 244 237 220
35 35 325 339 65 86 102 60 311 307 325 293 287 281 274 262 247 243 244 247 249 255 267 269 268 272 284 302 317 320 317 311 308 289 268 252 263 265 260 274 281 261 246 224
70 294 343 61 42 49 29 191 269 295 327 339 327 305 288 284 262 260 247 242 242 234 244 256 263 263 263 280 296 300 302 301 299 298 318 343 338 323 310 294 285 284 260 230
12 330 32 47 22 96 296 260 250 300 347 316 16 302 291 296 297 275 258 247 243 246 246 254 258 269 265 260 275 287 290 295 293 286 249 239 242 249 253 261 265 278 273 245
335 346 24 10 297 177 250 305 264 271 249 304 270 239 285 307 284 280 270 256 249 240 237 247 254 259 264 260 271 283 288 289 286 273 237 234 247 252 260 265 275 277 272 271
294 297 248 254 305 208 284 14 21 48 63 291 238 206 280 254 243 275 276 266 257 248 246 257 268 268 266 267 273 283 286 281 281 272 253 233 234 240 247 256 262 266 252 243
344 337 334 10 17 15 45 55 16 355 347 262 244 225 253 253 245 252 266 265 258 250 247 259 271 276 275 271 272 281 280 282 280 274 264 247 237 230 229 234 239 241 241 244
360 316 316 348 163 263 2 119 146 237 270 292 290 245 255 257 269 267 263 258 253 252 251 252 253 257 259 260 267 272 271 276 276 270 264 257 245 236 236 232 227 231 239 237
323 286 307 302 252 153 135 163 165 160 267 280 274 278 296 270 284 283 279 270 259 255 255 255 256 254 254 255 256 257 262 271 271 266 264 258 245 235 239 234 220 237 247 225
178 281 293 305 25 30 153 150 109 144 274 286 290 274 260 277 273 276 276 271 268 266 264 263 258 254 256 254 260 262 259 261 266 264 258 245 233 231 227 198 201 218 234 212
179 245 304 324 212 198 154 156 155 168 199 233 291 278 229 237 252 258 264 264 262 262 260 258 257 252 252 257 261 262 266 264 265 258 251 241 230 218 197 193 210 219 210 185
179 164 275 261 248 205 192 195 171 188 235 213 245 274 262 243 259 259 267 270 265 257 257 254 252 252 249 252 258 260 260 255 255 247 230 226 207 165 164 189 217 203 199 192
163 174 312 329 342 193 230 213 193 185 192 207 230 265 284 286 287 276 271 275 271 262 257 253 248 243 243 246 251 254 254 252 247 218 199 197 187 173 204 226 227 168 152 141
187 203 213 239 251 232 253 235 202 191 221 239 237 260 278 287 292 293 285 275 269 262 256 250 249 243 239 239 241 245 250 243 228 201 194 201 206 201 207 199 189 173 147 146
164 242 245 256 262 257 254 251 230 224 227 237 255 259 270 275 276 280 278 276 270 266 260 250 245 243 239 238 238 237 240 235 216 199 203 210 203 189 186 183 182 165 149 148
192 251 274 275 265 264 268 257 241 239 238 244 260 271 271 273 267 270 275 273 271 267 262 255 248 243 238 234 232 230 233 228 210 207 213 207 190 185 186 190 177 155 150 139
224 229 282 277 296 305 273 247 223 220 219 217 242 254 274 284 276 271 272 271 266 266 262 254 247 240 237 232 224 223 224 212 204 213 216 207 195 189 192 189 173 175 176 161
204 208 250 285 321 262 252 212 199 224 245 226 241 257 263 261 274 274 262 257 266 266 261 257 249 241 235 225 218 215 207 200 203 209 212 207 196 193 191 185 192 198 183 179
196 193 226 259 277 278 289 260 198 215 272 234 234 254 269 286 307 292 261 244 252 257 256 255 246 236 227 219 208 195 203 203 205 211 210 205 196 192 189 193 198 194 180 183
177 190 209 223 251 260 261 255 186 151 286 258 215 251 267 296 304 285 285 277 271 264 260 261 251 231 224 216 189 190 205 207 214 214 210 200 193 191 193 196 192 182 175 186
161 200 219 229 246 265 259 239 133 211 257 272 213 242 235 225 244 272 292 287 272 268 265 259 245 231 227 202 184 200 208 217 218 206 196 192 191 192 191 186 181 173 173 178
192 196 207 207 231 254 229 158 197 232 268 275 260 252 248 255 270 280 282 279 278 276 272 260 245 242 230 197 192 207 219 219 198 190 193 192 189 189 183 176 178 173 171 178
213 208 209 212 230 255 212 220 243 259 270 273 271 268 265 269 273 277 278 274 270 265 264 256 242 248 240 210 201 216 224 198 184 188 193 192 186 185 177 176 177 172 174 182
242 219 231 255 260 262 262 260 266 261 258 266 268 271 268 267 272 274 275 272 265 260 255 251 242 244 247 227 217 224 218 188 183 191 193 187 184 185 182 181 181 182 186 190
235 213 239 257 267 280 268 257 259 264 265 267 269 267 263 265 269 269 271 268 261 258 254 243 237 241 247 236 226 223 206 187 191 194 194 189 187 186 188 191 194 195 200 193
219 225 240 257 254 254 270 271 268 268 270 270 273 277 270 257 263 266 266 263 256 252 248 244 242 241 243 235 232 223 203 192 191 196 197 194 189 186 186 187 200 214 209 212
Height
1494 1497 1501 1501 1500 1501 1502 1504 1505 1502 1497 1497 1495 1492 1486 1483 1483 1482 1482 1481 1481 1481 1482 1482 1482 1482 1482 1482 1482 1482 1482 1482 1482 1482 1482 1482 1483 1484 1484 1485 1486 1487 1488 1490
1500 1502 1501 1500 1500 1501 1502 1504 1505 1501 1497 1497 1495 1489 1483 1480 1479 1478 1478 1478 1478 1478 1479 1479 1479 1479 1479 1479 1479 1479 1479 1479 1479 1479 1479 1479 1480 1480 1481 1481 1482 1483 1484 1485
1503 1504 1501 1500 1502 1502 1503 1505 1504 1503 1500 1497 1497 1489 1481 1477 1475 1474 1474 1474 1474 1475 1475 1476 1476 1476 1476 1476 1476 1476 1476 1476 1476 1476 1476 1476 1476 1476 1477 1477 1478 1479 1480 1481
1504 1502 1502 1502 1503 1503 1505 1502 1503 1503 1505 1506 1502 1501 1483 1478 1475 1472 1471 1471 1471 1472 1473 1473 1473 1473 1473 1473 1473 1473 1473 1473 1473 1473 1473 1473 1473 1472 1473 1473 1474 1475 1476 1477
1506 1503 1503 1503 1503 1503 1504 1502 1503 1503 1504 1506 1503 1504 1488 1480 1475 1470 1469 1468 1468 1469 1470 1470 1470 1470 1470 1470 1470 1470 1470 1469 1470 1469 1469 1469 1469 1469 1469 1470 1470 1471 1472 1474
1506 1504 1504 1503 1502 1502 1502 1503 1503 1506 1507 1507 1501 1504 1491 1481 1473 1469 1466 1466 1466 1466 1467 1467 1467 1468 1468 1467 1467 1467 1466 1466 1466 1465 1465 1465 1465 1465 1466 1466 1466 1467 1468 1470
1509 1505 1503 1503 1503 1503 1504 1508 1515 1511 1514 1507 1501 1501 1488 1471 1469 1467 1465 1464 1463 1464 1464 1464 1464 1464 1464 1464 1464 1464 1463 1462 1462 1462 1462 1462 1462 1462 1462 1462 1463 1464 1465 1466
1515 1513 1505 1504 1504 1506 1506 1508 1516 1514 1514 1511 1502 1498 1478 1467 1465 1463 1462 1462 1461 1462 1462 1462 1462 1462 1462 1461 1461 1461 1460 1459 1459 1458 1458 1458 1458 1459 1459 1459 1460 1460 1461 1462
1516 1513 1506 1503 1503 1504 1506 1509 1510 1515 1515 1513 1501 1491 1475 1464 1463 1461 1460 1460 1459 1459 1460 1459 1459 1459 1459 1458 1458 1458 1457 1456 1456 1456 1455 1455 1455 1455 1456 1456 1457 1457 1458 1459
1513 1515 1508 1505 1503 1504 1505 1508 1513 1514 1511 1506 1499 1492 1480 1465 1462 1461 1460 1458 1458 1458 1457 1457 1457 1457 1456 1456 1456 1455 1455 1454 1453 1453 1453 1453 1453 1453 1453 1454 1454 1455 1456 1456
1512 1515 1511 1507 1504 1503 1506 1508 1510 1513 1514 1511 1505 1484 1467 1463 1460 1459 1458 1457 1456 1456 1455 1455 1455 1454 1454 1453 1453 1452 1452 1451 1451 1450 1450 1450 1451 1451 1451 1451 1452 1453 1453 1454
1512 1516 1515 1508 1502 1501 1502 1503 1507 1510 1510 1513 1512 1485 1460 1459 1457 1457 1456 1454 1454 1454 1453 1453 1452 1451 1451 1450 1450 1450 1449 1448 1448 1448 1448 1448 1448 1449 1449 1449 1450 1450 1450 1451
1512 1514 1514 1504 1505 1504 1502 1501 1502 1505 1507 1510 1506 1479 1459 1457 1455 1454 1454 1452 1451 1450 1450 1449 1449 1448 1448 1448 1447 1447 1446 1446 1445 1445 1445 1445 1446 1446 1446 1447 1447 1448 1448 1448
1509 1512 1514 1507 1499 1500 1500 1499 1500 1503 1505 1501 1490 1472 1458 1456 1454 1452 1451 1449 1448 1447 1446 1445 1445 1445 1444 1444 1444 1444 1444 1443 1443 1443 1443 1443 1443 1444 1444 1444 1445 1445 1446 1446
1508 1510 1507 1503 1499 1499 1496 1493 1493 1494 1491 1490 1474 1469 1453 1452 1452 1449 1447 1445 1444 1443 1442 1441 1441 1440 1441 1441 1441 1441 1440 1441 1441 1441 1441 1441 1441 1441 1442 1442 1442 1443 1443 1443
1506 1507 1505 1500 1495 1494 1489 1482 1482 1482 1480 1476 1470 1461 1448 1448 1448 1445 1443 1442 1440 1438 1437 1437 1436 1436 1436 1436 1437 1437 1437 1437 1438 1438 1438 1438 1439 1439 1439 1439 1440 1440 1440 1441
1506 1506 1504 1499 1495 1491 1480 1467 1469 1470 1466 1467 1464 1453 1446 1447 1444 1442 1440 1438 1436 1434 1434 1433 1432 1432 1432 1432 1433 1433 1433 1434 1434 1435 1435 1436 1436 1436 1437 1437 1437 1437 1438 1438
1502 1504 1503 1500 1497 1489 1463 1457 1458 1460 1456 1455 1451 1446 1444 1443 1440 1438 1436 1434 1432 1431 1430 1429 1428 1428 1428 1428 1429 1429 1430 1430 1431 1431 1432 1432 1433 1433 1434 1434 1434 1434 1435 1436
1495 1499 1501 1500 1496 1481 1461 1455 1456 1457 1452 1445 1445 1442 1440 1439 1438 1433 1432 1431 1429 1428 1426 1425 1424 1424 1424 1424 1425 1425 1426 1426 1427 1428 1428 1429 1430 1430 1430 1431 1431 1432 1432 1433
1493 1495 1499 1498 1494 1480 1457 1452 1450 1453 1450 1439 1439 1439 1438 1438 1440 1432 1429 1427 1426 1424 1423 1422 1421 1420 1420 1420 1420 1421 1421 1422 1423 1424 1425 1426 1426 1427 1427 1428 1428 1429 1429 1430
1493 1495 1494 1492 1488 1471 1453 1450 1451 1456 1445 1437 1435 1435 1435 1435 1433 1429 1426 1424 1423 1421 1420 1419 1417 1416 1416 1416 1416 1416 1417 1417 1419 1420 1421 1421 1422 1423 1424 1424 1425 1426 1427 1427
1483 1486 1486 1484 1482 1466 1445 1448 1448 1442 1435 1434 1432 1432 1431 1429 1427 1425 1422 1420 1419 1417 1416 1415 1413 1412 1412 1412 1412 1411 1412 1414 1415 1416 1416 1417 1418 1419 1420 1421 1421 1422 1423 1424
1473 1469 1467 1465 1455 1443 1440 1438 1435 1434 1433 1431 1429 1428 1426 1424 1422 1420 1417 1415 1414 1413 1411 1410 1409 1408 1407 1407 1407 1407 1408 1409 1410 1411 1411 1413 1414 1415 1416 1417 1418 1419 1420 1421
1463 1460 1460 1456 1443 1438 1435 1433 1431 1430 1428 1426 1425 1423 1421 1418 1416 1413 1411 1409 1408 1406 1406 1405 1404 1403 1402 1402 1402 1402 1403 1404 1405 1405 1407 1408 1409 1411 1412 1413 1414 1415 1416 1417
1454 1454 1453 1446 1436 1433 1427 1426 1425 1424 1422 1420 1418 1417 1414 1412 1409 1407 1404 1402 1401 1400 1399 1398 1398 1397 1396 1396 1396 1397 1397 1398 1399 1400 1402 1403 1405 1406 1408 1409 1410 1411 1413 1414
1444 1444 1443 1432 1427 1427 1421 1420 1419 1417 1415 1413 1411 1407 1406 1404 1401 1399 1396 1395 1394 1393 1392 1391 1391 1391 1390 1390 1390 1391 1392 1392 1393 1394 1396 1398 1399 1401 1403 1404 1406 1407 1409 1410